Temp
21 21 21 22 22 22 23 23 23 23 23 24 24 25 25 25 26 26 27 27 27 27 26 25 26 26 25 25 25 24 27 29 28 28 29 27 28 25 24 24 24 23 23 23 22
21 21 21 22 22 22 22 23 23 23 24 24 24 25 25 26 27 27 27 27 27 27 26 26 26 26 26 24 24 25 28 29 28 29 29 28 28 27 26 25 24 22 23 22 22
20 21 21 22 22 22 22 23 23 23 24 24 25 25 26 26 27 27 28 27 27 27 26 26 26 26 25 24 25 25 29 29 28 28 28 28 29 27 27 26 26 24 20 21 21
20 21 21 21 22 22 22 23 23 23 24 24 25 25 26 26 27 27 27 27 26 26 26 26 26 25 26 27 24 27 27 27 28 28 28 29 28 28 27 29 26 24 25 23 20
20 21 21 21 22 22 22 23 23 24 24 24 25 25 25 26 27 27 27 27 27 26 26 26 26 25 27 26 25 26 29 27 28 27 27 27 29 30 28 26 26 25 23 22 21
20 20 21 21 22 22 22 23 23 24 24 24 25 25 25 26 27 26 26 26 27 26 26 26 26 26 26 26 27 27 27 28 28 28 28 29 29 28 27 25 23 24 22 21 22
19 20 20 21 22 22 22 23 23 24 24 24 25 25 25 27 27 26 26 26 27 26 26 26 26 26 25 27 26 27 29 30 30 29 31 29 30 30 27 25 23 22 22 21 21
18 19 20 21 21 22 23 23 24 24 24 24 25 25 26 27 27 27 27 26 26 26 26 26 26 25 25 26 28 28 29 31 32 30 30 31 33 31 27 26 24 23 22 22 22
18 19 19 20 21 22 23 23 24 24 24 24 24 25 26 27 28 27 27 27 26 26 26 25 26 25 26 27 29 29 29 30 31 30 31 30 33 30 26 27 26 24 23 22 22
18 19 19 20 21 22 23 23 24 24 24 24 24 24 26 27 27 28 27 27 27 27 26 25 25 27 26 29 29 29 29 30 30 31 30 31 31 29 26 27 28 25 24 23 23
18 19 19 20 21 22 23 23 23 23 23 25 25 25 26 27 27 28 28 27 26 26 28 26 27 28 29 28 28 28 28 28 30 30 30 31 31 32 29 27 27 26 25 24 24
18 19 19 20 21 22 23 23 22 22 22 25 25 25 26 26 26 27 27 27 26 27 26 27 27 28 28 28 28 28 29 30 31 30 31 30 32 32 31 29 28 27 26 26 25
18 19 20 20 21 22 22 22 22 22 21 24 25 25 27 26 27 27 27 27 28 27 27 28 29 28 29 30 31 29 30 31 30 31 30 31 33 32 31 28 28 27 27 26 26
18 19 20 20 21 22 22 22 23 23 23 25 24 26 26 27 28 28 28 28 28 28 27 28 28 27 29 30 31 31 29 30 31 32 32 30 31 31 31 32 31 31 28 27 26
18 18 20 20 21 22 22 22 23 22 24 25 25 25 25 28 28 27 28 28 29 28 28 29 28 28 29 30 30 31 30 29 30 31 31 31 31 33 29 32 32 32 29 29 28
18 18 20 20 21 21 22 22 22 24 23 26 25 26 26 27 28 27 27 28 28 28 28 29 27 29 30 30 30 30 30 29 28 30 31 29 30 32 32 30 30 29 28 27 27
18 19 20 20 21 21 22 22 23 23 25 26 26 26 27 27 28 29 28 28 29 28 28 28 29 29 29 30 29 30 31 31 30 31 30 27 29 32 30 28 27 26 25 25 25
19 20 21 21 21 21 22 23 21 24 24 25 26 25 27 27 28 28 28 28 26 28 27 29 29 29 29 31 32 31 32 31 28 29 30 26 30 33 29 27 25 24 24 23 23
19 20 21 21 21 21 21 22 24 22 24 25 26 26 27 27 28 28 28 28 29 28 29 28 28 28 28 30 31 28 30 29 28 25 29 30 30 31 29 29 26 24 24 23 23
19 20 19 20 21 20 22 20 21 21 23 24 25 26 27 27 28 28 27 28 29 28 30 29 28 28 30 29 28 30 29 30 28 28 29 29 28 31 29 27 25 24 23 22 22
18 19 18 19 20 20 22 21 20 21 21 24 25 25 26 27 28 27 28 29 28 26 27 29 29 29 29 30 31 28 29 26 28 28 30 29 31 27 26 24 24 23 22 22 22
17 19 17 18 19 13 20 19 19 22 22 24 24 24 25 25 26 26 28 27 26 26 27 27 29 29 30 30 27 30 30 30 30 27 26 28 30 26 25 24 23 23 22 21 21
14 16 17 18 21 19 17 20 20 22 22 23 24 23 23 25 26 26 26 26 25 27 27 26 27 29 29 28 26 28 28 28 27 28 27 29 30 25 24 24 22 22 22 21 21
14 18 16 17 16 18 20 20 21 20 22 22 23 23 24 25 24 26 27 27 25 25 23 27 26 29 30 29 27 28 28 27 30 29 29 29 30 25 25 25 22 21 20 20 20
13 13 12 18 17 18 18 19 20 21 21 20 22 23 25 25 25 26 26 27 26 23 24 28 28 25 27 26 27 28 29 27 28 30 29 31 28 27 25 24 22 20 20 20 19
11 11 12 13 12 16 16 20 20 21 21 22 22 24 23 24 26 26 26 25 28 25 26 24 26 25 28 26 26 26 28 28 28 27 27 26 27 26 22 21 21 20 20 19 18
11 10 10 12 14 16 18 19 20 18 20 20 21 21 22 23 23 25 24 24 26 27 25 26 25 25 27 24 25 26 28 27 26 24 27 26 28 23 22 22 21 20 20 19 18
Height
1529 1528 1526 1525 1523 1522 1521 1519 1518 1517 1516 1515 1513 1512 1512 1511 1510 1509 1509 1511 1510 1512 1512 1513 1513 1513 1513 1511 1511 1511 1512 1514 1513 1511 1510 1511 1511 1515 1516 1517 1519 1520 1520 1520 1524
1528 1527 1526 1524 1522 1521 1520 1518 1517 1516 1515 1513 1513 1512 1510 1509 1508 1506 1508 1508 1509 1512 1513 1513 1513 1513 1512 1512 1512 1512 1511 1510 1508 1507 1508 1508 1509 1512 1516 1516 1518 1519 1519 1521 1524
1527 1526 1524 1523 1521 1520 1518 1517 1516 1515 1514 1513 1512 1511 1509 1507 1506 1505 1506 1507 1509 1511 1512 1513 1513 1513 1513 1512 1511 1511 1509 1507 1507 1505 1506 1506 1507 1509 1511 1514 1512 1514 1517 1521 1523
1526 1524 1523 1521 1520 1519 1517 1516 1514 1514 1513 1512 1511 1510 1508 1507 1509 1505 1505 1507 1509 1511 1512 1512 1513 1513 1513 1511 1511 1510 1507 1507 1506 1505 1505 1504 1505 1505 1506 1506 1508 1511 1514 1517 1522
1524 1523 1521 1520 1518 1517 1515 1514 1513 1512 1511 1510 1510 1508 1507 1507 1505 1505 1505 1507 1509 1511 1512 1513 1513 1513 1512 1511 1511 1510 1506 1505 1503 1503 1502 1502 1501 1502 1502 1504 1506 1510 1514 1517 1522
1523 1521 1520 1518 1516 1515 1514 1512 1511 1511 1510 1509 1508 1507 1507 1507 1504 1504 1505 1507 1509 1511 1512 1513 1513 1513 1512 1511 1510 1507 1504 1502 1499 1499 1499 1499 1499 1501 1502 1503 1507 1510 1514 1517 1520
1521 1519 1517 1515 1514 1512 1511 1510 1509 1509 1508 1508 1507 1506 1505 1504 1503 1503 1505 1507 1510 1511 1512 1513 1513 1513 1512 1510 1510 1506 1502 1496 1497 1496 1494 1496 1498 1496 1498 1502 1506 1510 1513 1517 1519
1520 1517 1515 1513 1511 1510 1509 1508 1507 1506 1506 1506 1505 1505 1503 1501 1502 1503 1505 1507 1510 1511 1512 1514 1513 1513 1512 1509 1508 1506 1504 1506 1497 1497 1495 1497 1496 1492 1496 1499 1503 1508 1512 1514 1516
1518 1515 1513 1511 1509 1508 1506 1505 1504 1503 1503 1504 1504 1504 1501 1500 1501 1503 1505 1508 1510 1511 1512 1513 1513 1513 1511 1510 1509 1509 1516 1509 1502 1497 1496 1498 1493 1493 1496 1498 1501 1504 1507 1510 1514
1515 1513 1511 1508 1507 1505 1504 1503 1502 1501 1501 1502 1502 1506 1500 1500 1500 1501 1504 1507 1509 1509 1512 1512 1513 1512 1512 1510 1524 1518 1514 1507 1507 1498 1497 1497 1493 1495 1495 1495 1497 1503 1505 1506 1508
1513 1511 1509 1506 1504 1502 1502 1501 1503 1502 1499 1496 1496 1495 1496 1498 1499 1500 1501 1505 1509 1510 1509 1512 1514 1515 1509 1509 1508 1510 1513 1513 1500 1495 1498 1496 1494 1487 1491 1494 1495 1498 1500 1502 1503
1511 1508 1506 1504 1502 1500 1500 1500 1500 1501 1496 1491 1492 1492 1493 1496 1498 1498 1500 1505 1509 1509 1511 1513 1515 1506 1507 1507 1507 1508 1509 1506 1498 1496 1496 1496 1493 1488 1487 1488 1493 1494 1496 1496 1501
1508 1506 1504 1502 1500 1499 1499 1500 1499 1498 1498 1488 1486 1486 1490 1493 1495 1494 1498 1500 1502 1507 1507 1510 1506 1506 1505 1504 1503 1506 1506 1504 1506 1497 1497 1498 1493 1491 1486 1488 1488 1489 1489 1491 1493
1505 1503 1501 1499 1500 1498 1498 1499 1498 1497 1498 1485 1483 1482 1485 1489 1491 1490 1493 1497 1500 1502 1505 1506 1502 1505 1503 1503 1501 1506 1501 1500 1498 1499 1512 1502 1516 1495 1489 1486 1484 1483 1483 1484 1485
1502 1499 1498 1497 1496 1497 1498 1498 1497 1498 1514 1481 1480 1479 1480 1484 1483 1486 1489 1493 1493 1497 1502 1501 1501 1506 1504 1500 1498 1503 1500 1502 1501 1503 1507 1506 1511 1493 1492 1489 1483 1479 1479 1480 1480
1498 1495 1494 1494 1494 1495 1496 1497 1498 1505 1511 1478 1477 1477 1480 1481 1481 1485 1488 1491 1492 1495 1497 1496 1498 1497 1495 1495 1496 1497 1501 1503 1506 1505 1517 1515 1515 1500 1494 1495 1486 1482 1479 1476 1475
1494 1492 1490 1491 1492 1492 1494 1497 1504 1509 1480 1480 1477 1476 1476 1478 1479 1480 1484 1487 1490 1503 1501 1497 1495 1492 1493 1496 1496 1497 1497 1515 1520 1518 1522 1514 1514 1493 1492 1491 1490 1486 1481 1476 1471
1489 1487 1485 1487 1488 1491 1493 1496 1511 1488 1484 1475 1475 1477 1478 1476 1476 1478 1484 1487 1488 1489 1498 1500 1504 1490 1488 1488 1490 1493 1493 1510 1535 1528 1516 1518 1511 1488 1487 1491 1492 1490 1486 1479 1472
1485 1483 1482 1482 1485 1488 1492 1498 1489 1487 1480 1478 1474 1476 1476 1473 1474 1477 1480 1483 1481 1484 1496 1501 1501 1486 1487 1485 1486 1499 1501 1495 1513 1527 1519 1503 1495 1483 1485 1487 1489 1487 1483 1479 1476
1481 1480 1480 1480 1482 1487 1490 1493 1487 1483 1481 1478 1479 1474 1475 1473 1474 1477 1480 1474 1476 1478 1480 1488 1503 1488 1485 1486 1490 1489 1491 1503 1506 1524 1527 1509 1512 1493 1487 1487 1489 1488 1488 1485 1481
1479 1478 1478 1478 1482 1486 1487 1487 1485 1481 1481 1479 1478 1476 1473 1472 1469 1474 1475 1472 1472 1476 1479 1481 1487 1489 1486 1485 1484 1494 1494 1501 1498 1503 1507 1514 1499 1489 1491 1492 1493 1493 1492 1490 1486
1478 1479 1478 1479 1484 1487 1484 1484 1483 1479 1479 1477 1477 1474 1473 1471 1473 1474 1472 1471 1470 1472 1478 1479 1480 1488 1483 1476 1482 1481 1483 1485 1496 1511 1508 1504 1494 1486 1489 1491 1493 1494 1494 1492 1490
1479 1479 1479 1479 1480 1482 1483 1481 1480 1478 1477 1476 1474 1473 1472 1471 1474 1469 1470 1467 1468 1468 1471 1476 1483 1489 1484 1482 1484 1481 1480 1480 1486 1487 1501 1499 1488 1485 1487 1491 1494 1494 1493 1492 1491
1481 1479 1480 1481 1481 1480 1479 1479 1478 1477 1476 1475 1473 1472 1471 1470 1469 1470 1467 1465 1467 1467 1467 1469 1477 1475 1481 1479 1479 1481 1477 1477 1474 1486 1485 1483 1479 1485 1484 1487 1492 1494 1492 1492 1491
1483 1484 1484 1478 1480 1481 1480 1479 1478 1477 1475 1474 1471 1470 1468 1471 1470 1469 1467 1465 1466 1468 1470 1469 1474 1480 1475 1478 1477 1476 1474 1477 1479 1471 1480 1469 1478 1475 1480 1485 1488 1493 1492 1491 1491
1485 1486 1484 1482 1481 1481 1480 1476 1476 1475 1475 1470 1471 1465 1469 1469 1464 1465 1463 1466 1462 1467 1468 1471 1478 1479 1476 1475 1477 1478 1472 1472 1474 1477 1478 1478 1476 1475 1481 1485 1488 1491 1492 1491 1491
1486 1486 1486 1483 1480 1480 1476 1474 1474 1477 1471 1470 1470 1470 1467 1464 1463 1461 1463 1463 1462 1462 1467 1470 1476 1481 1483 1482 1480 1483 1471 1470 1470 1473 1469 1477 1465 1473 1479 1484 1487 1488 1490 1491 1490
Wind_Speed
8 9 9 10 10 10 10 10 10 9 9 9 9 10 10 9 10 10 9 5 7 4 4 2 0 2 2 2 3 2 1 3 2 1 3 6 7 5 3 10 4 3 5 8 25
9 10 10 11 10 10 10 10 10 10 9 9 9 10 11 11 11 9 4 6 7 4 6 2 2 1 1 1 2 1 2 1 1 2 0 3 9 11 5 9 5 6 7 19 27
10 10 10 11 11 11 11 10 11 10 10 10 10 10 11 12 7 1 5 8 7 6 7 2 2 2 0 1 2 1 1 1 1 3 2 1 9 12 8 9 12 15 18 26 29
10 11 11 12 11 11 11 11 11 11 10 10 10 10 11 9 1 2 6 9 7 8 2 2 2 1 1 2 1 3 5 3 2 3 2 3 6 7 14 3 2 14 18 30 29
10 11 11 12 12 12 12 12 12 11 11 10 10 10 10 5 2 2 8 9 10 9 8 7 5 1 1 3 3 3 3 4 6 7 8 5 9 6 10 3 6 18 21 28 27
12 12 12 12 12 12 12 12 12 11 11 10 10 9 8 4 3 2 7 8 12 9 1 4 3 4 1 3 3 8 11 13 6 3 5 3 1 8 3 10 14 21 23 26 28
13 13 13 13 13 13 13 13 12 11 11 10 10 9 10 8 1 5 8 11 10 8 3 3 6 3 5 4 6 7 7 5 2 4 5 10 3 7 10 15 18 19 21 24 25
15 15 15 14 14 13 13 13 12 12 11 9 9 9 7 4 5 6 10 12 10 6 2 4 3 3 3 7 1 2 1 5 4 1 2 6 3 2 13 18 18 19 21 25 27
16 15 16 16 15 13 12 12 12 11 9 8 8 5 6 3 7 10 10 8 6 5 3 4 7 2 2 3 2 5 3 7 4 3 2 4 7 5 12 15 16 21 23 24 25
16 16 16 16 15 13 11 10 8 8 8 7 10 4 7 2 4 9 13 12 4 4 3 2 1 0 1 3 4 5 4 5 8 1 3 6 16 2 10 17 18 18 20 23 27
17 17 16 16 15 13 8 7 5 5 8 8 3 3 5 5 3 6 12 16 7 2 2 2 0 2 4 4 5 5 4 7 5 5 3 5 10 13 7 13 15 18 22 24 27
18 17 16 15 14 10 3 2 2 3 7 13 22 21 17 10 2 6 10 10 9 6 4 2 5 5 3 3 4 1 2 4 6 6 2 2 5 8 5 8 12 18 22 26 23
18 17 15 14 12 3 2 3 5 6 4 7 15 16 19 13 7 9 17 10 5 7 7 5 2 7 2 2 3 2 6 8 3 5 2 5 3 4 1 5 5 11 18 22 27
19 17 15 11 7 4 5 2 7 2 3 4 5 6 13 11 6 17 18 10 4 8 7 6 2 2 2 3 1 3 1 8 7 4 4 6 6 5 3 8 5 8 12 19 23
18 18 13 10 8 3 6 3 1 2 3 4 4 3 12 15 8 11 22 9 10 8 6 3 4 4 4 1 1 2 4 3 2 1 2 1 4 4 4 4 13 16 15 12 15
18 17 13 10 7 6 6 2 4 1 6 1 4 6 10 7 5 7 9 6 4 5 1 3 1 4 3 3 5 1 3 2 2 2 4 1 3 2 1 4 11 17 21 23 17
18 15 14 9 3 5 7 5 2 4 2 2 2 5 9 8 7 6 10 11 9 6 9 5 7 4 4 4 3 5 1 4 4 4 4 4 5 6 7 3 7 18 26 24 21
17 14 12 8 8 9 7 2 4 2 4 2 1 3 10 8 9 5 7 11 2 3 2 6 8 8 7 8 4 5 3 5 7 6 7 3 4 1 8 4 9 12 15 18 21
16 12 7 7 12 12 8 5 4 4 3 5 1 4 6 5 4 8 8 6 10 10 8 5 4 2 4 3 3 5 5 1 4 2 3 3 5 7 1 6 16 18 20 20 18
15 7 4 7 13 15 3 4 3 4 4 2 1 1 7 8 9 8 8 4 10 14 15 6 6 4 2 5 5 4 9 4 1 7 9 4 4 6 7 12 13 16 18 17 16
10 1 3 9 17 9 5 5 5 6 4 2 2 3 1 3 8 7 6 4 4 7 8 9 7 4 4 5 8 4 4 3 1 2 6 8 4 3 3 5 7 9 11 13 16
3 1 6 15 4 1 3 4 2 3 2 2 2 3 3 1 4 6 8 4 2 10 10 8 5 12 17 5 1 3 4 5 8 7 1 2 4 4 2 4 5 6 8 8 9
8 1 9 3 3 3 2 2 3 2 2 1 3 4 1 2 3 5 5 4 5 8 9 10 5 6 5 5 3 7 7 7 4 3 8 6 4 4 4 7 7 5 5 4 5
4 1 1 4 1 1 3 2 2 3 4 5 3 2 2 3 3 1 4 3 3 2 3 10 4 5 8 1 1 4 9 9 8 6 7 9 5 8 8 7 5 4 5 5 7
6 2 1 2 2 2 2 1 2 2 4 4 3 9 6 3 3 4 3 1 2 3 3 2 3 3 3 3 3 3 5 8 10 9 9 10 10 13 10 7 5 3 6 8 9
4 3 4 2 2 2 3 4 4 2 3 4 8 2 6 5 6 7 7 3 3 4 3 1 3 2 3 0 1 5 9 11 12 7 9 5 7 6 8 8 6 5 8 11 12
6 4 2 1 1 2 2 2 3 1 5 12 7 6 8 11 13 16 7 4 1 4 4 2 5 3 8 2 4 10 10 10 5 5 7 10 5 13 9 9 7 7 8 10 11
Wind_Direction
328 327 323 320 326 330 328 328 326 325 327 329 326 324 325 321 310 301 281 243 219 204 187 150 245 278 22 360 22 18 48 48 51 51 25 165 182 143 117 142 159 157 143 174 163
329 326 319 318 321 321 320 321 318 318 322 325 326 326 326 325 317 290 244 209 202 176 174 163 87 95 293 26 351 13 90 311 327 295 321 204 192 165 154 161 170 138 151 162 166
328 321 316 315 315 315 315 313 310 313 316 320 325 325 327 330 328 55 176 192 187 182 177 198 250 259 286 347 358 72 91 185 242 271 326 205 196 174 174 194 206 188 159 166 170
325 321 317 315 314 313 311 306 305 309 311 315 320 323 326 333 339 360 189 189 183 174 209 138 165 356 287 293 248 278 246 242 263 210 259 279 168 197 205 203 190 188 175 172 176
325 322 318 316 313 309 306 302 301 304 305 308 314 319 329 319 283 291 197 183 176 158 121 65 68 63 322 294 278 223 318 252 258 247 260 229 208 199 221 202 140 168 173 177 181
327 323 319 314 310 305 301 298 297 298 298 302 305 310 317 281 317 170 181 181 172 173 180 43 19 3 285 294 308 323 304 293 290 184 197 203 209 184 143 171 149 166 178 183 186
328 325 321 315 310 305 301 295 295 293 291 293 295 302 296 275 202 167 167 171 174 172 85 31 359 351 328 310 333 308 325 340 25 323 203 164 191 224 161 158 160 174 181 187 192
331 328 323 317 310 307 299 293 292 288 284 283 283 296 269 255 189 166 165 176 184 205 249 325 26 332 308 298 344 337 6 8 17 288 298 225 309 226 179 173 173 180 186 192 198
327 325 322 318 314 310 299 294 292 284 276 268 271 268 269 243 211 192 179 186 215 241 238 274 320 4 319 359 53 27 333 343 340 294 240 238 285 29 186 198 194 190 192 197 202
323 321 321 318 316 311 299 295 294 276 256 257 252 276 230 179 179 199 205 199 119 116 186 174 111 259 64 5 29 320 345 325 298 239 230 239 266 286 204 212 213 202 203 203 205
321 319 319 317 316 314 302 292 278 275 230 218 216 204 142 146 177 198 199 199 213 298 216 89 110 244 266 240 282 293 265 286 296 285 250 231 271 283 240 228 225 217 214 215 219
319 318 317 315 318 318 307 161 67 301 299 249 243 248 245 244 300 204 175 161 184 201 168 168 237 238 219 268 282 23 13 10 285 51 267 326 279 299 279 258 239 230 225 228 227
319 318 317 314 317 294 175 169 334 324 264 273 234 236 233 231 220 211 179 173 175 177 196 221 146 160 276 332 41 106 20 5 324 336 112 300 270 338 16 301 268 240 239 236 230
319 318 318 315 307 304 173 328 329 204 288 241 216 226 198 191 227 220 198 173 170 200 189 236 178 178 139 323 10 87 242 321 339 5 342 351 323 293 337 339 331 324 252 242 236
319 316 316 309 291 280 175 323 23 78 282 132 172 194 179 181 150 186 189 194 185 176 188 181 155 160 307 156 85 312 348 358 358 148 292 48 280 324 4 341 338 335 330 311 265
318 313 308 301 273 237 209 284 139 232 249 116 141 168 162 195 158 130 173 198 174 159 238 243 326 242 208 217 279 323 186 82 104 192 268 48 305 278 46 330 319 326 332 339 330
316 307 295 281 229 181 183 160 192 223 342 114 178 172 188 175 165 162 175 184 190 184 219 195 226 243 215 229 166 204 219 282 261 269 298 124 273 275 159 1 325 333 345 348 351
319 304 284 259 221 208 181 148 222 244 259 338 34 136 195 163 195 148 147 193 189 157 140 222 232 191 166 220 257 174 229 250 274 269 304 180 238 221 145 44 13 12 2 4 9
324 305 272 221 201 181 173 203 235 220 323 321 259 178 189 184 191 186 201 208 204 187 211 184 250 287 229 173 195 144 203 52 120 74 253 296 261 264 155 35 27 22 20 21 25
330 308 228 198 181 173 165 230 246 232 319 288 295 250 186 178 181 188 178 190 200 190 210 194 257 206 174 171 66 251 141 185 193 243 259 226 267 262 352 353 16 26 24 25 36
330 302 323 170 159 165 206 227 252 258 241 326 332 311 285 186 205 181 201 194 199 179 197 181 225 193 200 202 223 145 182 75 163 278 254 269 257 187 300 358 27 38 36 49 61
349 179 151 147 141 348 185 200 239 274 235 268 251 261 254 207 168 189 203 232 141 153 166 189 218 245 252 272 280 230 239 215 239 202 230 294 253 157 166 105 92 75 55 71 58
346 38 176 104 193 194 228 242 243 257 268 272 267 235 124 297 234 191 198 150 159 165 165 170 210 235 224 166 152 214 195 183 148 176 186 217 240 161 165 135 112 101 75 50 355
357 176 112 204 84 170 161 200 251 234 256 240 274 250 223 255 211 284 208 155 55 132 138 155 153 228 247 19 15 221 188 176 206 209 196 224 215 188 185 161 123 84 69 53 25
12 46 351 173 190 250 247 195 246 261 234 232 220 230 203 232 198 214 215 211 90 112 73 227 220 205 268 238 238 260 221 194 210 233 228 259 218 190 183 163 123 63 61 64 39
34 4 340 280 291 229 197 205 203 256 235 244 231 248 211 234 223 209 187 219 189 139 143 149 177 190 263 319 326 276 260 249 235 229 245 242 219 168 149 139 124 76 71 65 56
6 344 346 295 209 195 230 206 195 13 248 250 290 304 264 257 264 252 255 294 310 182 146 146 144 167 263 357 314 266 263 237 223 217 223 197 218 165 164 149 122 94 77 65 54